Regional Weather Roundup
Issued by NWS

Home | Current Version | Previous Version | Text Only | Print | Product List | Glossary On
Versions: 1 2 3 4 5 6 7 8 9 10 11 12 13 14 15 16 17 18 19 20 21 22 23 24 25 26 27
000
ASUS42 KKEY 290510
RWRKEY

FLORIDA REGIONAL WEATHER ROUNDUP FOR THE FLORIDA KEYS
NATIONAL WEATHER SERVICE KEY WEST FLORIDA
100 AM EDT THU JUN 29 2017

...SOUTH FLORIDA AND THE KEYS...

CITY           SKY/WX    TMP DP  RH WIND       PRES   REMARKS
FORT MYERS     CLEAR     76  75  97 CALM      30.06S
SW REGIONAL AP CLEAR     75  73  93 CALM      30.07S
NAPLES         CLEAR     78  74  87 E6        30.06F
MIAMI          CLOUDY    84  75  74 E6        30.06F HX  92
WEST KENDALL   CLOUDY    79  76  90 CALM      30.06F
HOMESTEAD      MOCLDY    78  78 100 W3        30.05F
MARATHON       PTCLDY    84  77  79 SE7       30.06F HX  94
BOCA CHICA NAS PTCLDY    82  77  84 SE8       30.06F HX  90
KEY WEST INTL  PTCLDY    84  76  76 SE8       30.07F HX  93

...INTERNATIONAL WEATHER...

CITY           SKY/WX    TMP DP  RH WIND       PRES   REMARKS
NASSAU BAHAMAS PTCLDY    82  77  83 CALM      30.08S HX  91
CANCUN MEXICO  PTCLDY    82  79  89 E10       30.02R HX  93
COZUMEL MEXICO PTCLDY    81  77  89 SE7       29.99S

ADJACENT COASTAL WATERS...

STATION/POSITION TIME  SKY/WX   TEMP    WIND        PRES    WAVE
                                AIR SEA DIR/SP/G            HT/PER
                 (UTC)          (F)     (DEG/KT/KT) (MB)    (FT/S)
PULASKI SHOAL LI 0500            85     140/  7/  8 1017.9F
SAND KEY         0450            83     160/ 10/ 11 1018.7F
LONG KEY         0400            85 89  150/  2/  4 1018.1R
MOLASSES REEF    0500            84 84  110/  8/  9 1018.1R
FOWEY ROCKS      0500            83 84  110/  9/ 10 1018.3F
Buoy 42097       0430               85                N/A     1/ 6

$$




USA.gov is the U.S. government's official web portal to all federal, state and local government web resources and services.